User: anonymous   Login
Location: Unspecified
(0.0000°N, 0.0000°E)
Time: 04:12:03
(UTC+00:00)
Language:

Kosmos-2154 - Orbit

View from above orbital plane
View from above orbital plane
View from above satellite
View from above satellite

Ground track
Ground track

The orbit data is extracted from the following two-line orbital elements,

1 21666U 91059A   24206.60879259  .00000088  00000-0  78518-4 0  9994
2 21666  82.9050 263.7106 0024506 341.0949 175.3019 13.73443139649765
Epoch (UTC): 24 July 2024 14:36:39
Eccentricity: 0.0024506
inclination: 82.9050°
perigee height: 969 km
apogee height: 1005 km
right ascension of ascending node: 263.7106°
argument of perigee: 341.0949°
revolutions per day: 13.73443139
mean anomaly at epoch: 175.3019°
orbit number at epoch: 64976

The dashed part of the orbit path shows where the satellite is in the earth's shadow,  

DLR